| time (UTC) | temp C | wind direction | speed KPH | gust KPH | rain 1hr cm | rain 24hr cm | rain mn cm | humidity % | barometer mb |
| 20260506003019 | 15 | 217 | 6.4 | 12.9 | 0.00 | 0.00 | 0.00 | 71 | 1008.1 |
| 20260506001518 | 15 | 203 | 4.8 | 8.0 | 0.00 | 0.00 | 0.00 | 71 | 1007.2 |
| 20260506000009 | 15 | 177 | 3.2 | 9.7 | 0.00 | 0.00 | 0.00 | 71 | 1007.6 |
| 20260505234506 | 14 | 286 | 4.8 | 12.9 | 0.00 | 0.00 | 0.00 | 73 | 1007.9 |
| 20260505233003 | 14 | 157 | 9.7 | 22.5 | 0.00 | 0.00 | 0.00 | 73 | 1007.6 |
| 20260505231521 | 13 | 202 | 14.5 | 33.8 | 0.00 | 0.00 | 0.00 | 74 | 1007.4 |
| 20260505230032 | 13 | 212 | 9.7 | 25.7 | 0.00 | 0.00 | 0.00 | 74 | 1006.0 |
| 20260505224516 | 13 | 207 | 14.5 | 27.4 | 0.00 | 0.00 | 0.00 | 74 | 1005.8 |
| 20260505223013 | 13 | 202 | 14.5 | 25.7 | 0.00 | 0.00 | 0.00 | 73 | 1005.6 |
| 20260505221512 | 14 | 171 | 9.7 | 25.7 | 0.00 | 0.00 | 0.00 | 73 | 1005.4 |
| 20260505220007 | 14 | 190 | 11.3 | 25.7 | 0.00 | 0.00 | 0.00 | 72 | 1005.4 |
| 20260505214505 | 15 | 208 | 12.9 | 24.1 | 0.00 | 0.00 | 0.00 | 71 | 1005.4 |
| 20260505213003 | 15 | 193 | 9.7 | 17.7 | 0.00 | 0.00 | 0.00 | 70 | 1005.3 |
| 20260505211518 | 16 | 178 | 8.0 | 17.7 | 0.00 | 0.00 | 0.00 | 69 | 1005.2 |
| 20260505210015 | 16 | 229 | 16.1 | 33.8 | 0.00 | 0.00 | 0.00 | 69 | 1005.2 |
| 20260505204512 | 16 | 199 | 9.7 | 22.5 | 0.00 | 0.00 | 0.00 | 69 | 1005.1 |
| 20260505203018 | 17 | 212 | 8.0 | 22.5 | 0.00 | 0.00 | 0.00 | 68 | 1005.0 |
| 20260505201513 | 16 | 206 | 11.3 | 22.5 | 0.00 | 0.00 | 0.00 | 68 | 1005.3 |
| 20260505200002 | 16 | 201 | 9.7 | 19.3 | 0.00 | 0.00 | 0.00 | 71 | 1005.6 |
| 20260505194520 | 16 | 173 | 11.3 | 20.9 | 0.00 | 0.00 | 0.00 | 70 | 1005.5 |
| 20260505193002 | 16 | 193 | 12.9 | 24.1 | 0.00 | 0.00 | 0.00 | 68 | 1006.0 |
| 20260505191518 | 17 | 184 | 12.9 | 24.1 | 0.00 | 0.00 | 0.00 | 69 | 1006.4 |
| 20260505190014 | 16 | 188 | 9.7 | 22.5 | 0.00 | 0.00 | 0.00 | 69 | 1006.2 |
| 20260505184510 | 16 | 200 | 11.3 | 20.9 | 0.00 | 0.00 | 0.00 | 69 | 1006.4 |
| 20260505183010 | 16 | 190 | 12.9 | 20.9 | 0.00 | 0.00 | 0.00 | 69 | 1006.7 |
| 20260505181507 | 16 | 207 | 9.7 | 20.9 | 0.00 | 0.00 | 0.00 | 70 | 1006.8 |
| 20260505180004 | 16 | 190 | 9.7 | 24.1 | 0.00 | 0.00 | 0.00 | 70 | 1006.8 |
| 20260505174505 | 16 | 169 | 11.3 | 24.1 | 0.00 | 0.00 | 0.00 | 69 | 1007.1 |
| 20260505173002 | 17 | 237 | 11.3 | 20.9 | 0.00 | 0.00 | 0.00 | 69 | 1007.5 |
| 20260505171517 | 17 | 186 | 8.0 | 16.1 | 0.00 | 0.00 | 0.00 | 69 | 1007.6 |
| 20260505170013 | 16 | 201 | 8.0 | 16.1 | 0.00 | 0.00 | 0.00 | 69 | 1007.7 |
| 20260505164514 | 16 | 174 | 9.7 | 17.7 | 0.00 | 0.00 | 0.00 | 70 | 1008.1 |
| 20260505163011 | 16 | 206 | 8.0 | 25.7 | 0.00 | 0.00 | 0.00 | 70 | 1008.1 |
| 20260505161506 | 16 | 225 | 9.7 | 19.3 | 0.00 | 0.00 | 0.00 | 71 | 1008.1 |
| 20260505153017 | 13 | 200 | 9.7 | 17.7 | 0.00 | 0.00 | 0.00 | 76 | 1008.9 |
| 20260505151515 | 12 | 193 | 11.3 | 17.7 | 0.00 | 0.00 | 0.00 | 78 | 1009.3 |
| 20260505124521 | 13 | 202 | 9.7 | 16.1 | 0.00 | 0.00 | 0.00 | 74 | 1008.8 |
| 20260505123014 | 12 | 196 | 9.7 | 17.7 | 0.00 | 0.00 | 0.00 | 76 | 1008.9 |
| 20260505121522 | 12 | 203 | 8.0 | 14.5 | 0.00 | 0.00 | 0.00 | 76 | 1009.0 |
| 20260505120023 | 12 | 216 | 6.4 | 11.3 | 0.00 | 0.00 | 0.00 | 77 | 1009.2 |
| 20260505114513 | 11 | 176 | 8.0 | 16.1 | 0.00 | 0.00 | 0.00 | 77 | 1009.4 |
| 20260505113011 | 11 | 185 | 8.0 | 12.9 | 0.00 | 0.00 | 0.00 | 77 | 1009.3 |
| 20260505111516 | 11 | 205 | 6.4 | 12.9 | 0.00 | 0.00 | 0.00 | 79 | 1009.4 |
| 20260505101530 | 9 | 182 | 4.8 | 9.7 | 0.00 | 0.00 | 0.00 | 82 | 1009.2 |
| 20260505100037 | 9 | 209 | 3.2 | 11.3 | 0.00 | 0.00 | 0.00 | 82 | 1009.0 |
| 20260505094513 | 9 | 182 | 4.8 | 11.3 | 0.00 | 0.00 | 0.00 | 81 | 1009.0 |
| 20260505093018 | 9 | 197 | 4.8 | 11.3 | 0.00 | 0.00 | 0.00 | 82 | 1009.1 |
| 20260505091514 | 8 | 193 | 3.2 | 9.7 | 0.00 | 0.00 | 0.00 | 82 | 1009.1 |
| 20260505090006 | 8 | 178 | 4.8 | 9.7 | 0.00 | 0.00 | 0.00 | 81 | 1009.2 |
| 20260505084523 | 8 | 185 | 1.6 | 6.4 | 0.00 | 0.00 | 0.00 | 81 | 1009.3 |
| 20260505083023 | 8 | 181 | 4.8 | 9.7 | 0.00 | 0.00 | 0.00 | 81 | 1009.3 |
| 20260505081535 | 8 | 217 | 3.2 | 8.0 | 0.00 | 0.00 | 0.00 | 81 | 1009.3 |
| 20260505080046 | 8 | 190 | 3.2 | 8.0 | 0.00 | 0.00 | 0.00 | 80 | 1009.3 |
| 20260505074531 | 9 | 199 | 4.8 | 8.0 | 0.00 | 0.00 | 0.00 | 80 | 1009.3 |
| 20260505073038 | 9 | 189 | 3.2 | 9.7 | 0.00 | 0.00 | 0.00 | 79 | 1009.2 |
| 20260505071639 | 9 | 217 | 3.2 | 8.0 | 0.00 | 0.00 | 0.00 | 79 | 1009.2 |
| 20260505070002 | 9 | 213 | 4.8 | 12.9 | 0.00 | 0.00 | 0.00 | 78 | 1009.1 |
| 20260505064538 | 9 | 221 | 4.8 | 9.7 | 0.00 | 0.00 | 0.00 | 78 | 1009.0 |
| 20260505063137 | 10 | 198 | 4.8 | 11.3 | 0.00 | 0.00 | 0.00 | 77 | 1009.0 |
| 20260505061617 | 10 | 174 | 1.6 | 9.7 | 0.00 | 0.00 | 0.00 | 77 | 1009.1 |
| 20260505060111 | 10 | 178 | 4.8 | 8.0 | 0.00 | 0.00 | 0.00 | 76 | 1009.0 |
| 20260505054640 | 10 | 198 | 4.8 | 9.7 | 0.00 | 0.00 | 0.00 | 75 | 1009.0 |
| 20260505053117 | 10 | 184 | 4.8 | 11.3 | 0.00 | 0.00 | 0.00 | 75 | 1009.0 |
| 20260505051646 | 10 | 173 | 3.2 | 8.0 | 0.00 | 0.00 | 0.00 | 74 | 1008.9 |
| 20260505041642 | 13 | 188 | 6.4 | 14.5 | 0.00 | 0.00 | 0.00 | 64 | 1008.3 |
| 20260505040001 | 14 | 186 | 8.0 | 14.5 | 0.00 | 0.00 | 0.00 | 63 | 1008.1 |
| 20260505034519 | 13 | 189 | 6.4 | 16.1 | 0.00 | 0.00 | 0.00 | 63 | 1008.1 |
| 20260505033145 | 13 | 198 | 6.4 | 16.1 | 0.00 | 0.00 | 0.00 | 64 | 1008.0 |
| 20260505031551 | 13 | 198 | 9.7 | 24.1 | 0.00 | 0.00 | 0.00 | 68 | 1008.0 |
| 20260505030028 | 12 | 220 | 6.4 | 16.1 | 0.00 | 0.00 | 0.00 | 71 | 1008.1 |
| 20260505024524 | 11 | 184 | 6.4 | 12.9 | 0.00 | 0.00 | 0.00 | 72 | 1008.2 |
| 20260505023023 | 11 | 169 | 4.8 | 11.3 | 0.00 | 0.00 | 0.00 | 74 | 1008.1 |
| 20260505021635 | 10 | 198 | 3.2 | 8.0 | 0.00 | 0.00 | 0.00 | 77 | 1008.1 |
| 20260505020037 | 10 | 186 | 4.8 | 11.3 | 0.00 | 0.00 | 0.00 | 78 | 1008.1 |
| 20260505014526 | 10 | 187 | 1.6 | 9.7 | 0.00 | 0.00 | 0.00 | 77 | 1008.1 |
| 20260505013142 | 10 | 197 | 3.2 | 9.7 | 0.00 | 0.00 | 0.00 | 78 | 1007.9 |
| 20260505011612 | 10 | 219 | 3.2 | 6.4 | 0.00 | 0.00 | 0.00 | 77 | 1007.7 |
| 20260505010137 | 10 | 183 | 3.2 | 8.0 | 0.00 | 0.00 | 0.00 | 76 | 1007.5 |
| 20260505004634 | 10 | 225 | 0.0 | 4.8 | 0.00 | 0.00 | 0.00 | 75 | 1007.4 |
| 20260505003113 | 10 | 172 | 0.0 | 3.2 | 0.00 | 0.00 | 0.00 | 73 | 1007.2 |